AV468 Weather Reports


time (UTC)temp
C
wind
direction
speed
KPH
gust
KPH
rain 1hr
cm
rain 24hr
cm
rain mn
cm
humidity
%
barometer
mb
20260509221601 33 123 0.0 4.8 0.00 0.51 0.51 50 1007.8
20260509220100 32 0 0.0 6.4 0.00 0.51 0.51 53 1007.8
20260509214557 31 0 1.6 11.3 0.00 0.51 0.51 55 1008.0
20260509213059 31 123 1.6 11.3 0.00 0.51 0.51 55 1008.1
20260509211601 31 125 6.4 14.5 0.00 0.51 0.51 56 1008.3
20260509210111 31 106 1.6 14.5 0.00 0.51 0.51 56 1008.5
20260509204600 31 132 1.6 6.4 0.00 0.51 0.51 57 1008.7
20260509203100 32 0 3.2 6.4 0.00 0.51 0.51 56 1008.9
20260509201602 31 132 1.6 11.3 0.00 0.51 0.51 58 1009.2
20260509200104 31 132 0.0 6.4 0.00 0.51 0.51 59 1009.6
20260509194559 30 0 0.0 8.0 0.00 0.51 0.51 61 1009.5
20260509193100 30 0 0.0 8.0 0.00 0.51 0.51 69 1009.6
20260509191558 28 136 0.0 11.3 0.00 0.51 0.51 74 1009.7
20260509190110 28 202 0.0 8.0 0.00 0.51 0.51 75 1010.2
20260509184605 27 0 0.0 1.6 0.00 0.51 0.51 80 1010.5
20260509183059 26 0 0.0 3.2 0.00 0.51 0.51 85 1010.8
20260509181603 25 0 0.0 0.0 0.03 0.51 0.51 88 1010.9
20260509180103 25 0 0.0 3.2 0.05 0.51 0.51 89 1011.2
20260509174558 25 0 0.0 4.8 0.51 0.51 0.51 91 1011.1
20260509173101 25 0 0.0 3.2 0.51 0.51 0.51 92 1011.2
20260509171557 25 0 0.0 1.6 0.48 0.48 0.48 89 1011.3
20260509170105 26 0 0.0 4.8 0.46 0.46 0.46 85 1011.5
20260509164558 27 218 3.2 11.3 0.00 0.00 0.00 77 1011.4
20260509163104 27 219 3.2 11.3 0.00 0.00 0.00 78 1011.1
20260509161558 27 207 4.8 16.1 0.00 0.00 0.00 77 1011.3
20260509160058 28 0 0.0 6.4 0.00 0.00 0.00 73 1011.1
20260509154608 28 0 1.6 6.4 0.00 0.00 0.00 71 1011.0
20260509153057 28 0 0.0 8.0 0.00 0.00 0.00 73 1010.7
20260509151608 28 237 3.2 16.1 0.00 0.00 0.00 76 1010.5
20260509150111 27 233 1.6 16.1 0.00 0.00 0.00 79 1010.3
20260509144603 27 206 8.0 17.7 0.00 0.00 0.00 78 1010.0
20260509143107 26 225 3.2 19.3 0.00 0.00 0.00 82 1009.9
20260509141601 25 211 3.2 11.3 0.00 0.00 0.00 85 1009.9
20260509140106 25 202 3.2 14.5 0.00 0.00 0.00 89 1009.8
20260509134602 23 0 3.2 14.5 0.00 0.00 0.00 92 1009.9
20260509133110 23 196 4.8 16.1 0.00 0.00 0.00 94 1009.7
20260509131559 22 0 0.0 6.4 0.00 0.00 0.00 95 1009.8
20260509130059 22 162 1.6 11.3 0.00 0.00 0.00 95 1009.6
20260509124602 22 146 0.0 6.4 0.00 0.00 0.00 95 1009.6
20260509123106 21 0 0.0 1.6 0.00 0.00 0.00 95 1009.9
20260509121602 21 0 0.0 1.6 0.00 0.00 0.00 95 1010.2
20260509120104 21 0 0.0 1.6 0.00 0.00 0.00 95 1010.2
20260509114607 22 0 0.0 4.8 0.00 0.00 0.00 94 1010.6
20260509113109 22 0 0.0 0.0 0.00 0.00 0.00 95 1011.0
20260509111559 22 0 0.0 0.0 0.00 0.00 0.00 95 1011.1
20260509110057 22 0 0.0 0.0 0.00 0.00 0.00 94 1011.4
20260509104557 22 0 0.0 0.0 0.00 0.00 0.00 94 1011.8
20260509103058 22 0 0.0 0.0 0.00 0.00 0.00 94 1011.9
20260509101605 22 0 0.0 0.0 0.00 0.00 0.00 94 1011.4
20260509100058 22 0 0.0 1.6 0.00 0.00 0.00 94 1011.3
20260509094604 22 137 0.0 4.8 0.00 0.00 0.00 94 1010.8
20260509093106 22 0 0.0 1.6 0.00 0.00 0.00 94 1010.6
20260509091609 22 0 0.0 1.6 0.00 0.00 0.00 93 1010.0
20260509090120 22 0 0.0 4.8 0.00 0.00 0.00 93 1009.9
20260509084605 22 139 0.0 4.8 0.00 0.00 0.00 93 1010.0
20260509083108 22 0 0.0 3.2 0.00 0.00 0.00 93 1010.4
20260509081600 22 0 0.0 0.0 0.00 0.00 0.00 92 1010.4
20260509080110 22 0 0.0 0.0 0.00 0.00 0.00 92 1010.3
20260509074600 22 0 0.0 0.0 0.00 0.00 0.00 92 1010.6
20260509073113 22 0 0.0 1.6 0.00 0.00 0.00 91 1010.7
20260509071601 23 0 0.0 4.8 0.00 0.00 0.00 91 1011.1
20260509070100 23 0 0.0 4.8 0.00 0.00 0.00 91 1010.7
20260509064559 23 139 0.0 4.8 0.00 0.00 0.00 91 1010.8
20260509063121 23 139 0.0 8.0 0.00 0.00 0.00 91 1010.8
20260509061600 23 0 1.6 8.0 0.00 0.00 0.00 91 1010.8
20260509060058 23 0 0.0 11.3 0.00 0.00 0.00 91 1010.8
20260509054559 22 0 0.0 1.6 0.00 0.00 0.00 91 1010.5
20260509053058 22 0 0.0 4.8 0.00 0.00 0.00 90 1009.7
20260509051558 22 0 0.0 3.2 0.00 0.00 0.00 90 1009.6
20260509044606 23 132 0.0 8.0 0.00 0.00 0.00 89 1009.4
20260509043102 23 0 0.0 4.8 0.00 0.00 0.00 89 1009.8
20260509041557 23 128 0.0 11.3 0.00 0.00 0.00 89 1010.0
20260509034607 22 0 0.0 1.6 0.00 0.00 0.00 89 1010.0
20260509033111 22 0 0.0 3.2 0.00 0.00 0.00 89 1009.9
20260509031600 22 0 0.0 6.4 0.00 0.00 0.00 90 1009.7
20260509030059 22 0 0.0 6.4 0.00 0.00 0.00 90 1009.3
20260509024606 22 110 1.6 6.4 0.00 0.00 0.00 90 1009.1
20260509023058 22 0 0.0 1.6 0.00 0.00 0.00 89 1009.1
20260509021557 22 0 0.0 0.0 0.00 0.00 0.00 88 1009.0
20260509020058 23 0 0.0 1.6 0.00 0.00 0.00 87 1008.8
20260509014556 23 0 0.0 4.8 0.00 0.00 0.00 86 1008.6
20260509013110 23 109 0.0 6.4 0.00 0.00 0.00 86 1008.5
20260509011606 23 109 4.8 11.3 0.00 0.00 0.00 85 1008.5
20260509010058 23 108 1.6 11.3 0.00 0.00 0.00 85 1008.5
20260509004604 24 0 3.2 9.7 0.00 0.00 0.00 84 1008.6
20260509003056 24 97 1.6 11.3 0.00 0.00 0.00 84 1008.5
20260509001606 24 113 3.2 11.3 0.00 0.00 0.00 84 1008.5
20260509000056 24 103 3.2 9.7 0.00 0.00 0.00 83 1008.6
20260508234557 24 101 0.0 11.3 0.00 0.00 0.00 83 1008.7
20260508233101 24 0 1.6 11.3 0.00 0.00 0.00 82 1008.6
20260508231558 24 96 6.4 14.5 0.00 0.00 0.00 82 1008.5
20260508230103 24 119 3.2 14.5 0.00 0.00 0.00 81 1008.5
20260508224613 24 0 0.0 11.3 0.00 0.00 0.00 81 1008.7
20260508223058 25 107 3.2 11.3 0.00 0.00 0.00 80 1008.7